Dallas/Ft Worth, TX

12:45 PM CST on January 17, 2018 (GMT -0600)
Dallas-Fort Worth International

Weather History for KDFW - June, 2014

Change the Weather History Date:

Thursday, June 26, 2014

  Actual Average Record
Temperature  
Mean Temperature 80 °F 83 °F  
Max Temperature 89 °F 93 °F 113 °F (1980)
Min Temperature 70 °F 73 °F 60 °F (1928)
Degree Days  
Heating Degree Days 0 0  
Month to date heating degree days 0 0  
Since 1 June heating degree days 0 0  
Since 1 July heating degree days 2603 2284  
Cooling Degree Days 15 18  
Month to date cooling degree days 447 417  
Year to date cooling degree days 923 839  
Since 1 June cooling degree days 447 417  
Growing Degree Days 30 (Base 50)    
Moisture  
Dew Point 70 °F    
Average Humidity 73    
Maximum Humidity 93    
Minimum Humidity 53    
Precipitation  
Precipitation 0.00 in 0.11 in 2.54 in (2007)
Month to date precipitation 3.26 3.39  
Year to date precipitation 10.59 19.64  
Sea Level Pressure  
Sea Level Pressure 29.94 in    
Wind  
Wind Speed 13 mph (SSE)    
Max Wind Speed 22 mph    
Max Gust Speed 27 mph    
Visibility 10 miles    
Events      
T = Trace of Precipitation, MM = Missing Value Source: NWS Daily Summary

Daily Weather History Graph

Daily Weather History Graph

Search for Another Location

Airport or City:

Trip Planner

Search our weather history database for the weather conditions in past years. The results will help you decide how hot, cold, wet, or windy it might be!

Date:

Astronomy

Jun. 26, 2014 Rise Set
Actual Time 6:21 AM CDT 8:40 PM CDT
Civil Twilight 5:52 AM CDT 9:09 PM CDT
Nautical Twilight 5:17 AM CDT 9:44 PM CDT
Astronomical Twilight 4:39 AM CDT 10:22 PM CDT
Moon 5:57 AM CDT (6/26) 8:07 PM CDT (6/26)
Length of Visible Light 15h 16m
Length of Day
14h 18m
Waning Crescent, 0% of the Moon is Illuminated
Jun 26
Waning Crescent
Jun 27
New
Jul 5
First Quarter
Jul 12
Full
Jul 18
Last Quarter

Hourly Weather History & Observations

Time (CDT) Temp. Heat Index Dew Point Humidity Pressure Visibility Wind Dir Wind Speed Gust Speed Precip Events Conditions
12:53 AM 73.9 °F - 70.0 °F 87% 29.98 in 10.0 mi SSE 8.1 mph - N/A   Overcast
1:19 AM 73.9 °F - 70.0 °F 87% 29.99 in 10.0 mi SSE 5.8 mph - N/A   Mostly Cloudy
1:43 AM 73.9 °F - 70.0 °F 87% 29.98 in 10.0 mi SE 6.9 mph - N/A   Mostly Cloudy
1:50 AM 73.4 °F - 69.8 °F 88% 29.97 in 10.0 mi SSE 6.9 mph - N/A   Mostly Cloudy
1:53 AM 73.4 °F - 69.8 °F 88% 29.97 in 10.0 mi SE 8.1 mph - N/A   Mostly Cloudy
2:53 AM 73.0 °F - 70.0 °F 90% 29.94 in 10.0 mi South 5.8 mph - N/A   Mostly Cloudy
3:30 AM 73.0 °F - 70.0 °F 90% 29.96 in 10.0 mi SSE 5.8 mph - N/A   Mostly Cloudy
3:53 AM 72.0 °F - 70.0 °F 93% 29.94 in 8.0 mi SE 5.8 mph - N/A   Mostly Cloudy
4:02 AM 72.0 °F - 70.0 °F 93% 29.95 in 8.0 mi SE 5.8 mph - N/A   Overcast
4:53 AM 71.1 °F - 70.0 °F 96% 29.93 in 8.0 mi Calm Calm - N/A   Mostly Cloudy
5:40 AM 71.1 °F - 69.1 °F 93% 29.96 in 7.0 mi SSE 3.5 mph - N/A   Mostly Cloudy
5:53 AM 72.0 °F - 70.0 °F 93% 29.94 in 7.0 mi SE 4.6 mph - N/A   Overcast
6:53 AM 73.0 °F - 70.0 °F 90% 29.97 in 10.0 mi SSE 12.7 mph - N/A   Overcast
7:36 AM 73.0 °F - 70.0 °F 90% 30.01 in 10.0 mi South 13.8 mph - N/A   Overcast
7:53 AM 73.0 °F - 70.0 °F 90% 29.99 in 10.0 mi South 11.5 mph - N/A   Overcast
8:05 AM 73.9 °F - 70.0 °F 87% 30.01 in 10.0 mi South 13.8 mph - N/A   Mostly Cloudy
8:34 AM 75.9 °F - 70.0 °F 82% 30.01 in 10.0 mi South 12.7 mph - N/A   Mostly Cloudy
8:47 AM 77.0 °F - 69.8 °F 78% 30.02 in 10.0 mi South 15.0 mph - N/A   Mostly Cloudy
8:53 AM 75.9 °F - 70.0 °F 82% 30.00 in 10.0 mi South 13.8 mph - N/A   Mostly Cloudy
9:24 AM 78.1 °F - 71.1 °F 79% 30.02 in 10.0 mi South 13.8 mph - N/A   Mostly Cloudy
9:53 AM 79.0 °F - 70.0 °F 74% 29.99 in 10.0 mi South 17.3 mph 23.0 mph N/A   Mostly Cloudy
10:53 AM 81.0 °F 84.4 °F 70.0 °F 69% 29.98 in 10.0 mi SSW 16.1 mph - N/A   Mostly Cloudy
11:53 AM 82.0 °F 85.9 °F 70.0 °F 67% 29.96 in 10.0 mi South 19.6 mph - N/A   Mostly Cloudy
12:25 PM 82.9 °F 86.5 °F 69.1 °F 63% 29.98 in 10.0 mi South 15.0 mph 21.9 mph N/A   Mostly Cloudy
12:53 PM 86.0 °F 90.7 °F 70.0 °F 59% 29.95 in 10.0 mi South 16.1 mph 24.2 mph N/A   Mostly Cloudy
1:53 PM 84.9 °F 88.8 °F 69.1 °F 59% 29.93 in 10.0 mi South 17.3 mph - N/A   Mostly Cloudy
2:53 PM 88.0 °F 92.1 °F 69.1 °F 53% 29.89 in 10.0 mi SSW 13.8 mph - N/A   Mostly Cloudy
3:53 PM 88.0 °F 92.9 °F 70.0 °F 55% 29.87 in 10.0 mi South 17.3 mph - N/A   Mostly Cloudy
4:53 PM 88.0 °F 91.4 °F 68.0 °F 51% 29.85 in 10.0 mi South 16.1 mph 21.9 mph N/A   Mostly Cloudy
5:53 PM 88.0 °F 91.4 °F 68.0 °F 51% 29.83 in 10.0 mi SSE 15.0 mph - N/A   Mostly Cloudy
6:53 PM 88.0 °F 92.1 °F 69.1 °F 53% 29.82 in 10.0 mi SSE 15.0 mph - N/A   Mostly Cloudy
7:53 PM 84.0 °F 89.6 °F 72.0 °F 67% 29.83 in 10.0 mi SE 16.1 mph - N/A   Mostly Cloudy
8:53 PM 81.0 °F 84.4 °F 70.0 °F 69% 29.85 in 10.0 mi SSE 18.4 mph 25.3 mph N/A   Mostly Cloudy
9:53 PM 79.0 °F - 70.0 °F 74% 29.86 in 10.0 mi SSE 16.1 mph 21.9 mph N/A   Scattered Clouds
10:53 PM 78.1 °F - 72.0 °F 81% 29.87 in 10.0 mi SSE 13.8 mph - N/A   Scattered Clouds
11:53 PM 78.1 °F - 71.1 °F 79% 29.87 in 10.0 mi SSE 15.0 mph - N/A   Partly Cloudy